Voltar ao catálogo

COSMOS 2535 DEB

AtivoSSO
NORAD 44712·DEBRIS·🇷🇺 Russia

Lançado Jul 10, 2019 de Plesetsk Cosmodrome

Loading…

Próximas Passagens (próximas 24 horas)

TLE

AtualizadoSource: Space-Track

Época: Sep 13, 2026, 16:57 UTC

1 44712U 19039P   26256.70679113  .00001933  00000-0  20000-3 0  9996
2 44712  97.6841 253.6334 0039320  74.4814 286.0740 14.90665548375679

Acompanhe COSMOS 2535 DEB em tempo real com AllMySat

Download on the App Store